ARIRANG-2 (KOMPSAT-2)

Last updated on Wed Jul 09 2025 00:02:28 GMT+0000 (Coordinated Universal Time)

1 29268U 06031A 25189.54820475 .00000245 00000+0 54810-4 0 9999 2 29268 97.8360 25.6224 0015987 84.4317 296.9936 14.64319834 11188
UTC large
Height (km)
Speed (km/s)
/
Latitude / Longitude
Inclination (degrees)
Orbital Period (minutes)
Azimuth
Elevation
Range (km)
Doppler Factor

Next 0 passes for location: London (51.5072 / 0.1276)

Sorry there are no passes over London.